FENGYUN 1C DEB, 30721

Orbit data source: Space-Track

FENGYUN 1C DEB, 30721 is space debris in SSO originally from a launch on Mon, 10 May 1999 UTC launched from the Taiyaun Space Center, China (TSC). Fengyun 1C debris stems from the Chinese weather satellite Fengyun-1C, which was intentionally destroyed by a Chinese anti-satellite missile in 2007. This event dramatically increased the amount of space debris, with thousands of trackable fragments posing hazards to satellites and human spaceflight. The Fengyun 1C debris cloud has become a focal point in discussions about space sustainability and the need for international regulations to prevent the creation of new debris.

Loading next visibility...
Identifier
30721, 1999-025ASF
Orbit
SSO
Country
Flag of CNCN / PRC
Related business
Manufacturer
Unknown
Mission
Spacecraft
Bus & Motor
Unknown
Mass
Unknown
Launch date (UTC)
1999-05-10 (27 years ago)
Launch vehicle
Unknown
Launch site
Taiyaun Space Center, China (TSC)
Object type
Payload
Rocket body
Debris
Shape & HBR
Unknown shape, 0.1 m
Radar Cross Section
Small (<0.1 m²)

Expand to show TLE details & history
Last TLE update: 18 hours ago

TLE from 18 hours ago
0 FENGYUN 1C DEB
1 30721U 99025ASF 26207.40521583  .00020164  00000-0  25085-2 0  9998
2 30721  98.7175   1.8826 0021052 349.6495  37.2382 14.82403085 11560
Epoch: 2026-07-26T09:43Z
TLE epoch observation values (Epoch: 2026-07-26T09:43:30.647Z)
Latitude
26.73558°
Longitude
-92.50442°
Altitude
613.348 km
Speed
7.561 km/s
True Right ascension
23h 49m 54s
True Declination
26° 35' 41"
Sunlit
Object was in daylight at epoch
Visualization orbit readout
Latitude
Unknown
Longitude
Unknown
Altitude
Unknown
Speed
Unknown
Apparent Right ascension
Unknown
Apparent Declination
Unknown
Sunlit
N/A
Visualization observer readout
Local Sidereal Time
17:05:24
Azimuth
Unknown
Elevation
Unknown
Doppler factor
Unknown
Orbital elements
Apogee altitude
633.555 km
Perigee altitude
604.095 km
Semi-major axis
6,996.962 km
Eccentricity
0.00211
Inclination
98.7175°
RAAN
1.8826°
Arg. of periapsis
349.6495°
True anomaly
37.38449°
Mean anomaly
37.2382°
Eccentric anomaly
37.31131°
Mean motion
3.70833 °/min
Orbital period
97.08 mins
BSTAR
0.0025085
Loading maneuver chart data...
Computing Atmospheric mass density...

Documentation

Showing up to 5 results
|